This is the latest recevied weather packets stored in our database for station/object K8WEH. If no packets are shown the sender has not sent any weather packets the latest 10 day(s).
| Time | Temp. | Humidity | Pressure | Rain* | Wind** | Luminosity | Snow |
|---|---|---|---|---|---|---|---|
| 1778062216 | 11.67° C | 49% | 1008.3 hPa | 1.52 mm | - | - | - |
| 1778061917 | 12.78° C | 42% | 1008.3 hPa | 1.78 mm | - | - | - |
| 1778061618 | 13.89° C | 39% | 1008.2 hPa | 1.52 mm | - | - | - |
| 1778061313 | 13.89° C | 39% | 1007.7 hPa | 1.52 mm | - | - | - |
| 1778061013 | 13.89° C | 39% | 1007.8 hPa | 1.52 mm | - | - | - |
| 1778060713 | 13.89° C | 39% | 1007.5 hPa | 1.78 mm | - | - | - |
| 1778060413 | 13.89° C | 39% | 1007.4 hPa | 1.78 mm | - | - | - |
| 1778060116 | 13.89° C | 39% | 1007.3 hPa | 1.78 mm | - | - | - |
| 1778059812 | 13.89° C | 39% | 1007.4 hPa | 1.78 mm | - | - | - |
| 1778059513 | 13.89° C | 39% | 1007.3 hPa | 1.78 mm | - | - | - |
| 1778059211 | 13.89° C | 39% | 1007.7 hPa | 1.27 mm | - | - | - |
| 1778058911 | 13.89° C | 40% | 1007.5 hPa | 1.78 mm | - | - | - |
| 1778058612 | 13.89° C | 40% | 1007.5 hPa | 1.78 mm | - | - | - |
| 1778058316 | 13.89° C | 40% | 1007.5 hPa | 2.03 mm | - | - | - |
| 1778058010 | 13.89° C | 40% | 1007.6 hPa | 2.03 mm | - | - | - |
| 1778057711 | 13.89° C | 40% | 1007.5 hPa | 2.54 mm | - | - | - |
| 1778057410 | 13.89° C | 40% | 1007.5 hPa | 2.79 mm | - | - | - |
| 1778057111 | 13.89° C | 40% | 1007.6 hPa | 2.79 mm | - | - | - |
| 1778056810 | 13.89° C | 40% | 1007.5 hPa | 2.79 mm | - | - | - |
| 1778056511 | 13.89° C | 40% | 1007.5 hPa | 2.79 mm | - | - | - |
| 1778056210 | 13.89° C | 40% | 1007.3 hPa | 2.54 mm | - | - | - |
| 1778055914 | 13.89° C | 40% | 1007.4 hPa | 2.54 mm | - | - | - |
| 1778055608 | 13.89° C | 40% | 1007.4 hPa | 3.05 mm | - | - | - |
| 1778055314 | 13.89° C | 40% | 1007.4 hPa | 2.79 mm | - | - | - |
| 1778055008 | 13.89° C | 40% | 1007.3 hPa | 3.05 mm | - | - | - |
* Rain latest hour (hover to see other rain measurements)
** Current wind speed in m/s (hover to see current wind gust speed)